Regional Weather Roundup
Issued by NWS Upton, NY

Current Version | Previous Version | Text Only | Print | Product List | Glossary On
Versions: 1 2 3 4 5 6 7 8 9 10 11 12 13 14 15 16 17 18 19 20 21 22 23 24 25 26 27
000
ASUS41 KOKX 101208
RWROKX

REGIONAL WEATHER ROUNDUP
NATIONAL WEATHER SERVICE NEW YORK NY
700 AM EST SAT DEC 10 2016

NOTE: "FAIR" INDICATES FEW OR NO CLOUDS BELOW 12,000 FEET WITH NO
SIGNIFICANT WEATHER AND/OR OBSTRUCTIONS TO VISIBILITY.

NYZ071-072-176-178-NJZ106-104-101300-
NEW YORK CITY METRO AREA

CITY           SKY/WX    TMP DP  RH WIND       PRES   REMARKS
Central Park   CLEAR     29  15  56 W8        30.39R WCI  21
Wall St Helipt MOSUNNY   31  21  66 W8        30.39R WCI  23
Bronx Bot Gard NOT AVBL
LaGuardia APRT PTCLDY    31  17  56 W12       30.38R WCI  22
Kennedy INTL   PTCLDY    30  15  53 W13       30.39R WCI  20
Breezy Point     N/A    N/A N/A N/A W9G16       N/A
Newark/Liberty PTCLDY    27  19  72 W8        30.39R WCI  19
Teterboro      CLEAR     27  15  61 SW6       30.37R WCI  20
$$

NYZ177-179-078>081-101300-
LONG ISLAND NEW YORK

CITY           SKY/WX    TMP DP  RH WIND       PRES   REMARKS
Jones Beach      N/A    N/A N/A N/A NW14        N/A
Matinecock PT    N/A     32 N/A N/A W18         N/A  WCI  20
Farmingdale    CLEAR     27  16  63 W9        30.37R WCI  18
MacArthur/ISP  PTCLDY    24  17  74 SW7       30.35R WCI  16
Shirley        CLEAR     20  16  84 W3        30.36R
Westhampton    NOT AVBL
Southampton    NOT AVBL
Bridgehampton  NOT AVBL
East Hampton     N/A     26  14  59 NW9       30.33R WCI  17
Montauk          N/A     28  12  51 NW16G24   30.34R WCI  16
$$

NYZ052-065-067-101300-
HUDSON VALLEY

CITY           SKY/WX    TMP DP  RH WIND       PRES   REMARKS
White Plains   PTCLDY    26  16  65 W9        30.33R WCI  17
Newburgh       MOCLDY    21  18  86 W8        30.34R WCI  12
Montgomery     CLOUDY    21  16  81 CALM      30.33R
Poughkeepsie   PTCLDY    16  13  88 CALM      30.35R
Albany         CLOUDY    20  12  71 NW6       30.35R WCI  12
$$

NJZ001-105-106-008-010-013-015-019>022-104-101300-
NEW JERSEY

CITY           SKY/WX    TMP DP  RH WIND       PRES   REMARKS
Newark/Liberty PTCLDY    27  19  72 W8        30.39R WCI  19
Teterboro      CLEAR     27  15  61 SW6       30.37R WCI  20
Caldwell       PTCLDY    24  15  68 CALM      30.38R
Somerville     PTCLDY    20  16  84 CALM      30.37R
Linden           N/A     26  21  80 CALM      30.40R
Sussex         CLEAR     18  15  88 CALM      30.34R
Andover          N/A     20  16  84 CALM      30.35R
Trenton        PTCLDY    28  18  66 W7        30.40R WCI  21
Millville      CLEAR     26  19  74 W7        30.45R WCI  18
Atlantic City  CLEAR     26  17  68 W8        30.44  WCI  18
Wrightstown    PTCLDY    28  18  66 W7        30.38R WCI  21
Toms River     CLEAR     19  17  92 SW6       30.42R WCI  11
Belmar         CLEAR     23  20  88 SW5       30.40R WCI  17
$$

PAZ047>061-062-071-101300-
EASTERN PENNSYLVANIA

CITY           SKY/WX    TMP DP  RH WIND       PRES   REMARKS
Philadelphia   PTCLDY    27  17  66 W8        30.44R WCI  19
Allentown      CLOUDY    27  19  72 W7        30.38R WCI  19
Scranton       CLOUDY    26  22  84 SW7       30.32R WCI  18
$$

CTZ002-004>006-009-010-012-RIZ004-006-007-MAZ004-011-015-101300-
SOUTHERN NEW ENGLAND
 IN CT

CITY           SKY/WX    TMP DP  RH WIND       PRES   REMARKS
Bradley INTL   PTCLDY    17   8  67 SW5       30.32R WCI  10
Hartford       CLEAR     22  10  60 CALM      30.34R
Danbury        CLEAR     15  12  88 CALM      30.33R
Wtrbury/Oxford CLEAR     19   9  63 NW3       30.30R
Bridgeport     CLEAR     24  14  65 W3        30.35R
Meriden        CLEAR     17  11  77 CALM      30.34R
New Haven      PTCLDY    24  13  62 W6        30.34R WCI  17
Chester          N/A     19  10  68 CALM      30.31R
Groton         CLEAR     26   9  48 W8        30.33R WCI  18
Wilimantic     CLEAR     22  10  60 W3        30.32R

 IN RI

CITY           SKY/WX    TMP DP  RH WIND       PRES   REMARKS
Providence     PTCLDY    19   8  62 W5        30.30R WCI  12
Block Island   CLEAR     25  11  55 NW16G23   30.32R WCI  12
Westerly       CLEAR     22   9  57 W5        30.33R WCI  16
 IN MA

CITY           SKY/WX    TMP DP  RH WIND       PRES   REMARKS
Boston         PTCLDY    21   8  57 W10       30.29R WCI  10
Worcester      CLEAR     15   3  59 W6        30.22R WCI   6
Westfield      CLEAR     19   8  62 NW6       30.30R WCI  11
Provincetown   CLOUDY    26  16  65 NW15G30   30.26R WCI  14
Nantucket      CLEAR     24   9  52 NW8       30.27R WCI  15
$$

ANZ330-335-338-340-345-350-353-355-101300-
COASTAL MARINE OBSERVATIONS


STATION/POSITION TIME  SKY/WX   TEMP    WIND        PRES    VSBY  WAVE
                                AIR SEA DIR/SP/G                  HT/PER
                 (UTC)          (F)     (DEG/KT/KT) (MB)    (MI)  (FT/S)
NY HARB ENTRANCE 1050            34 51  300/ 17/ 23 1027.6          3/ 4
20 S FIRE ISLAND 1150            34 52  300/ 19/ 25 1027.7          4/ 5
GREAT SOUTH BAY  1130            29 40                N/A
23 SSW MONTAUK P 1050            32 54  290/ 16/ 19 1026.7          3/ 4
15 E BARNEGAT LI 1130               51                N/A           4/ 4
HUDSON CANYON    1050            38 56              1026.8          7/ 7
KINGS POINT      1148            30 45              1028.3
EXECUTION ROCKS  1145            30     280/ 10/ 14   N/A
CENTRAL LI SOUND 1130            29 49  320/ 14/ 17   N/A           2/ 4
EASTERN LI SOUND NOT AVBL
ROBBINS REEF     1148            30     280/ 11/ 14 1029.0
$$


>>>>>>>>>>>>>>>>>>>>>>>>>>>> KEY <<<<<<<<<<<<<<<<<<<<<<<<<<<
>                                                          <
>     SKY/WX - Sky Condition/Present Weather               <
>     TMP    - Temperature in Fahrenheit                   <
>     DP     - Dew Point in Fahrenheit                     <
>     RH     - Relative Humidity in Percent                <
>     WIND   - Direction (from) and Speed in MPH           <
>     PRES   - Mean Sea Level Pressure (inches of Hg)      <
>     WCI    - Wind Chill Index                            <
>     VSB    - VISIBILITY IN MILES                         <
>     HX     - HEAT INDEX                                  <
>     TC     - TEMPERATURE IN CELSIUS                      <
>     VRB    - VARIABLE WIND DIRECTION                     <
>                                                          <
>>>>>>>>>>>>>>>>>>>>>>>>>>>> KEY <<<<<<<<<<<<<<<<<<<<<<<<<<<




USA.gov is the U.S. government's official web portal to all federal, state and local government web resources and services.